KE8FSY Weather Reports


Display with metric or nautical units.
time (UTC)temp
F
wind
direction
speed
MPH
gust
MPH
rain 1hr
in
rain 24hr
in
rain mn
in
humidity
%
barometer
mb
20260504173021 72 299 2.0 6.0 0.00 0.00 0.00 52 1010.8
20260504172507 72 240 2.0 6.0 0.00 0.00 0.00 52 1010.8
20260504172008 71 237 2.0 6.0 0.00 0.00 0.00 51 1010.8
20260504171508 70 258 2.0 10.0 0.00 0.00 0.00 51 1010.9
20260504171006 70 177 1.0 10.0 0.00 0.00 0.00 54 1010.8
20260504170505 69 255 2.0 7.0 0.00 0.00 0.00 54 1011.0
20260504151014 62 237 0.0 5.0 0.00 0.00 0.00 66 1012.6
20260504150514 62 297 2.0 7.0 0.00 0.00 0.00 65 1012.4
20260504141010 57 230 2.0 5.0 0.00 0.00 0.00 72 1013.4
20260504140516 57 233 1.0 5.0 0.00 0.00 0.00 73 1013.5
20260504130508 56 260 2.0 5.0 0.00 0.00 0.00 65 1013.8
20260504110506 50 296 0.0 3.0 0.00 0.00 0.00 65 1013.0
20260504100510 50 289 0.0 2.0 0.00 0.00 0.00 64 1013.0
20260504081510 48 309 0.0 2.0 0.00 0.00 0.00 68 1013.6
20260504081004 48 309 0.0 2.0 0.00 0.00 0.00 67 1013.6
20260504080507 49 309 0.0 2.0 0.00 0.00 0.00 65 1013.6
20260504050511 53 273 0.0 2.0 0.00 0.00 0.00 60 1014.8
20260504045506 54 273 0.0 3.0 0.00 0.00 0.00 68 1014.6
20260504045006 54 267 1.0 3.0 0.00 0.00 0.00 63 1014.8
20260504044532 54 299 0.0 2.0 0.00 0.00 0.00 70 1015.1
20260504044012 54 299 0.0 2.0 0.00 0.00 0.00 68 1015.1
20260504043508 54 299 0.0 2.0 0.00 0.00 0.00 67 1015.3
20260504043016 54 299 0.0 2.0 0.00 0.00 0.00 66 1015.3
20260504042508 54 299 0.0 2.0 0.00 0.00 0.00 66 1015.4
20260504042010 54 299 0.0 2.0 0.00 0.00 0.00 65 1015.4
20260504041522 54 299 0.0 4.0 0.00 0.00 0.00 64 1015.4
20260504041010 54 299 1.0 4.0 0.00 0.00 0.00 66 1015.7
20260504040510 54 351 0.0 2.0 0.00 0.00 0.00 64 1015.5
20260504040026 54 351 0.0 0.0 0.00 0.00 0.00 65 1015.5
20260504035511 54 351 0.0 2.0 0.00 0.00 0.00 64 1015.4
20260504035012 55 351 0.0 2.0 0.00 0.00 0.00 65 1015.7
20260504034526 55 351 0.0 2.0 0.00 0.00 0.00 64 1015.7
20260504034017 55 351 0.0 2.0 0.00 0.00 0.00 61 1015.6
20260504033509 55 86 0.0 2.0 0.00 0.00 0.00 62 1015.5
20260504033031 55 86 0.0 1.0 0.00 0.00 0.00 60 1015.4
20260504032507 55 86 0.0 0.0 0.00 0.00 0.00 58 1015.4
20260504032009 55 86 0.0 2.0 0.00 0.00 0.00 58 1015.5
20260504031521 55 86 0.0 2.0 0.00 0.00 0.00 56 1015.4
20260504031007 55 86 0.0 3.0 0.00 0.00 0.00 58 1015.3
20260504030508 55 87 0.0 3.0 0.00 0.00 0.00 60 1015.3
20260504030026 55 303 0.0 2.0 0.00 0.00 0.00 59 1015.4
20260504025509 55 303 0.0 0.0 0.00 0.00 0.00 61 1015.5
20260504025010 56 303 0.0 0.0 0.00 0.00 0.00 58 1015.5
20260504024527 56 303 0.0 0.0 0.00 0.00 0.00 59 1015.6
20260504024006 56 303 0.0 2.0 0.00 0.00 0.00 58 1015.5
20260504023506 56 303 0.0 2.0 0.00 0.00 0.00 59 1015.4
20260504023028 56 303 0.0 2.0 0.00 0.00 0.00 58 1015.4
20260504022516 56 303 0.0 2.0 0.00 0.00 0.00 57 1015.4
20260504022010 56 303 0.0 2.0 0.00 0.00 0.00 54 1015.3
20260504021516 56 303 0.0 1.0 0.00 0.00 0.00 53 1015.2
20260504021009 56 303 0.0 2.0 0.00 0.00 0.00 53 1015.1
20260504020506 57 303 0.0 2.0 0.00 0.00 0.00 53 1015.1
20260504020028 57 303 0.0 2.0 0.00 0.00 0.00 53 1015.0
20260504015508 57 303 0.0 2.0 0.00 0.00 0.00 54 1014.9
20260504015021 57 303 0.0 1.0 0.00 0.00 0.00 53 1014.8
20260504014541 57 303 0.0 1.0 0.00 0.00 0.00 51 1014.6
20260504014004 57 303 0.0 2.0 0.00 0.00 0.00 49 1014.5
20260504013507 57 303 0.0 2.0 0.00 0.00 0.00 48 1014.5
20260504013013 58 303 0.0 2.0 0.00 0.00 0.00 48 1014.3
20260504012510 58 303 0.0 0.0 0.00 0.00 0.00 47 1014.3
20260504012008 58 303 0.0 0.0 0.00 0.00 0.00 47 1014.3
20260504011517 58 303 0.0 0.0 0.00 0.00 0.00 44 1014.5
20260504011010 58 303 0.0 0.0 0.00 0.00 0.00 46 1014.6
20260504010513 58 303 0.0 0.0 0.00 0.00 0.00 45 1014.6
20260504010018 59 303 0.0 0.0 0.00 0.00 0.00 45 1014.6
20260504005508 59 303 0.0 0.0 0.00 0.00 0.00 44 1014.7
20260504005010 59 303 0.0 0.0 0.00 0.00 0.00 43 1014.6
20260504004506 59 303 0.0 0.0 0.00 0.00 0.00 43 1014.7
20260504004004 60 303 0.0 0.0 0.00 0.00 0.00 41 1014.7
20260504003504 60 303 0.0 0.0 0.00 0.00 0.00 42 1014.7
20260504003010 60 303 0.0 0.0 0.00 0.00 0.00 42 1014.7
20260504002505 60 303 0.0 0.0 0.00 0.00 0.00 43 1014.7
20260504002006 61 303 0.0 2.0 0.00 0.00 0.00 39 1014.6
20260504001518 61 303 0.0 2.0 0.00 0.00 0.00 39 1014.6
20260504001007 61 303 0.0 2.0 0.00 0.00 0.00 41 1014.5
20260504000507 61 303 0.0 2.0 0.00 0.00 0.00 39 1014.6
20260504000035 61 303 0.0 2.0 0.00 0.00 0.00 38 1014.6
20260503235509 62 303 0.0 2.0 0.00 0.00 0.00 36 1014.6
20260503235007 62 316 0.0 2.0 0.00 0.00 0.00 36 1014.7
20260503234522 62 235 0.0 2.0 0.00 0.00 0.00 37 1014.6
20260503234009 62 234 0.0 2.0 0.00 0.00 0.00 36 1014.6
20260503233504 62 233 0.0 4.0 0.00 0.00 0.00 36 1014.5
20260503233008 62 233 2.0 4.0 0.00 0.00 0.00 33 1014.5
20260503232504 63 291 0.0 4.0 0.00 0.00 0.00 36 1014.6
20260503232007 63 293 0.0 5.0 0.00 0.00 0.00 37 1014.7
20260503231512 63 300 1.0 5.0 0.00 0.00 0.00 33 1014.7
20260503231006 63 286 2.0 5.0 0.00 0.00 0.00 33 1014.8
20260503230507 63 300 1.0 2.0 0.00 0.00 0.00 36 1014.9
20260503230018 63 301 0.0 2.0 0.00 0.00 0.00 35 1014.9
20260503225511 63 260 1.0 3.0 0.00 0.00 0.00 34 1015.0
20260503225006 63 293 1.0 7.0 0.00 0.00 0.00 34 1015.0
20260503224521 63 292 1.0 10.0 0.00 0.00 0.00 33 1015.3
20260503224009 63 283 4.0 10.0 0.00 0.00 0.00 32 1015.3
20260503223507 63 292 2.0 7.0 0.00 0.00 0.00 32 1015.1
20260503223026 64 253 3.0 7.0 0.00 0.00 0.00 32 1015.2
20260503222504 64 288 3.0 9.0 0.00 0.00 0.00 31 1015.4
20260503222005 64 270 1.0 9.0 0.00 0.00 0.00 34 1015.3
20260503221510 64 272 1.0 4.0 0.00 0.00 0.00 33 1015.3
20260503221006 64 239 1.0 4.0 0.00 0.00 0.00 34 1015.3
20260503220504 64 243 2.0 3.0 0.00 0.00 0.00 33 1015.2
20260503220019 64 239 0.0 3.0 0.00 0.00 0.00 35 1015.3
20260503215507 64 228 1.0 4.0 0.00 0.00 0.00 35 1015.3
20260503215011 64 256 1.0 4.0 0.00 0.00 0.00 34 1015.4
20260503214529 64 260 2.0 7.0 0.00 0.00 0.00 33 1015.4
20260503214007 64 243 3.0 7.0 0.00 0.00 0.00 32 1015.4
20260503213512 64 257 2.0 4.0 0.00 0.00 0.00 33 1015.4
20260503213028 64 237 2.0 5.0 0.00 0.00 0.00 34 1015.5
20260503212517 64 247 1.0 7.0 0.00 0.00 0.00 35 1015.4
20260503212009 63 272 2.0 7.0 0.00 0.00 0.00 34 1015.5
20260503211511 63 239 2.0 7.0 0.00 0.00 0.00 32 1015.5
20260503211004 63 220 1.0 9.0 0.00 0.00 0.00 34 1015.6
20260503210505 63 266 3.0 12.0 0.00 0.00 0.00 32 1015.7
20260503210035 63 243 2.0 12.0 0.00 0.00 0.00 34 1015.8
20260503205506 63 262 1.0 4.0 0.00 0.00 0.00 34 1015.7
20260503205007 63 250 2.0 5.0 0.00 0.00 0.00 34 1015.7
20260503204518 63 267 2.0 7.0 0.00 0.00 0.00 34 1015.8
20260503204010 63 273 2.0 7.0 0.00 0.00 0.00 34 1015.9
20260503203507 63 254 3.0 7.0 0.00 0.00 0.00 33 1016.0
20260503203020 63 289 2.0 5.0 0.00 0.00 0.00 34 1016.1
20260503202508 63 242 2.0 7.0 0.00 0.00 0.00 32 1016.2
20260503202011 63 241 3.0 7.0 0.00 0.00 0.00 33 1016.1
20260503201532 63 247 3.0 7.0 0.00 0.00 0.00 35 1016.5
20260503201007 63 224 1.0 7.0 0.00 0.00 0.00 33 1016.5
20260503200508 62 193 2.0 6.0 0.00 0.00 0.00 34 1016.8
20260503200015 62 243 2.0 8.0 0.00 0.00 0.00 33 1016.9
20260503195507 62 239 2.0 8.0 0.00 0.00 0.00 34 1016.8
20260503195007 62 181 1.0 5.0 0.00 0.00 0.00 36 1016.8
20260503194515 62 246 1.0 5.0 0.00 0.00 0.00 36 1017.0
20260503194007 62 205 2.0 5.0 0.00 0.00 0.00 33 1017.1
20260503193506 61 233 2.0 8.0 0.00 0.00 0.00 35 1017.2
20260503193020 61 193 3.0 7.0 0.00 0.00 0.00 36 1017.2
20260503192510 61 293 2.0 6.0 0.00 0.00 0.00 36 1017.3
20260503192003 61 218 1.0 6.0 0.00 0.00 0.00 37 1017.5
20260503191504 61 64 3.0 8.0 0.00 0.00 0.00 36 1017.6
20260503191003 62 300 2.0 8.0 0.00 0.00 0.00 33 1017.8
20260503190503 62 299 2.0 7.0 0.00 0.00 0.00 34 1017.9
20260503190008 62 256 2.0 6.0 0.00 0.00 0.00 32 1018.0
20260503185506 62 56 1.0 5.0 0.00 0.00 0.00 33 1018.1
20260503185011 63 235 1.0 8.0 0.00 0.00 0.00 36 1018.2
20260503184520 62 293 0.0 10.0 0.00 0.00 0.00 32 1018.2
20260503184008 63 264 4.0 10.0 0.00 0.00 0.00 35 1018.2
20260503183508 63 178 1.0 5.0 0.00 0.00 0.00 33 1018.3
20260503183024 63 166 1.0 4.0 0.00 0.00 0.00 31 1018.3
20260503182507 63 77 1.0 5.0 0.00 0.00 0.00 33 1018.4
20260503182012 63 216 2.0 5.0 0.00 0.00 0.00 33 1018.6
20260503181524 63 210 1.0 5.0 0.00 0.00 0.00 35 1018.7
20260503181004 62 261 1.0 6.0 0.00 0.00 0.00 35 1018.8
20260503180504 62 268 3.0 6.0 0.00 0.00 0.00 36 1018.9
20260503180007 63 285 3.0 10.0 0.00 0.00 0.00 33 1019.0
20260503175506 63 287 5.0 10.0 0.00 0.00 0.00 33 1019.2
20260503175003 63 210 1.0 6.0 0.00 0.00 0.00 35 1019.1
20260503174512 63 224 1.0 9.0 0.00 0.00 0.00 41 1019.1
20260503174004 62 172 1.0 9.0 0.00 0.00 0.00 33 1019.3
20260503173506 62 219 1.0 8.0 0.00 0.00 0.00 39 1019.3